{"data":{"norad_id":44314,"intl_designator":"2019-032E","name":"TIANQI-3","alt_names":[],"object_type":"PAYLOAD","status":"ACTIVE","operator":null,"country":"PRC","launch_date":"2019-06-05","launch_site_code":"YSLA","launch_vehicle":null,"mission":null,"orbit_class":"UNKNOWN","rcs_meters":null,"size_class":null,"mass_kg":null,"dimensions":null,"purposes":[],"wikipedia_slug":null,"has_3d_model":false,"image_url":null,"decayed_at":null,"tle_current":{"epoch":"2026-05-25T04:21:51.979104Z","epoch_age_seconds":55391,"freshness":"FRESH","line1":"1 44314U 19032E   26145.18185161  .00018381  00000+0  49168-3 0  9991","line2":"2 44314  44.9994 107.3510 0007231 198.3257 161.7370 15.37821549384535","mean_motion":15.37821549,"eccentricity":0.0007231,"inclination_deg":44.9994,"raan_deg":107.351,"arg_perigee_deg":198.3257,"mean_anomaly_deg":161.737,"bstar":0.00049168,"rev_number":38453,"period_min":93.638953163089,"perigee_km":447.61326407694,"apogee_km":457.49180728344,"semimajor_km":6830.6895356802,"source":"CELESTRAK","updated_at":"2026-05-25T13:37:55.966092Z"}}}